Wetbulb
46.21 40.48 36.14 38.06 40.13 40.11 37.99 36.06 35.66 39.53 44.70 42.21 40.42 40.84 43.01 45.44 45.23 44.77 44.61 44.76 46.73 48.75 50.75 51.78 53.04 54.26 55.56 60.98 62.70 61.64 62.05 62.74 64.42 64.66 64.34 63.67 63.99 64.67 62.68 59.68 59.36 58.16 56.45 54.73
39.20 36.88 42.11 43.08 42.52 40.88 38.67 36.20 35.54 40.95 45.30 42.73 40.31 40.26 43.32 44.44 44.11 44.62 45.12 45.25 46.35 48.45 49.08 49.93 51.86 53.19 53.96 56.71 61.94 62.03 61.88 62.09 61.74 61.41 61.88 63.55 63.70 63.45 61.89 60.47 59.26 58.30 56.37 52.49
36.52 40.43 44.65 43.03 40.03 38.89 36.93 36.14 36.12 37.87 42.73 42.65 40.24 36.85 39.78 43.50 44.48 45.90 46.09 47.31 48.16 47.46 47.98 49.62 51.27 51.89 53.33 54.55 59.22 61.46 62.82 62.40 61.98 62.24 62.45 62.87 63.27 62.29 58.72 57.63 56.57 56.71 55.50 51.49
39.16 43.16 42.32 40.06 39.37 39.36 34.17 41.64 41.27 40.57 38.26 32.60 38.38 28.93 36.02 39.86 41.18 42.35 44.57 47.87 47.33 48.79 49.60 50.21 51.31 52.27 53.09 54.47 60.16 61.03 61.26 60.51 60.65 60.96 60.59 60.31 59.84 59.26 56.18 55.08 56.26 55.15 52.68 51.33
37.48 39.46 38.58 38.30 39.70 40.77 38.00 42.25 40.59 40.42 37.42 34.67 35.10 30.58 32.41 38.74 38.50 40.60 46.01 47.28 48.03 49.68 50.71 51.33 51.54 53.01 54.82 56.55 58.83 59.23 60.16 59.53 57.11 58.28 60.76 60.61 58.94 55.74 54.50 54.45 53.78 52.72 52.85 52.54
39.69 43.00 41.66 40.29 41.79 42.22 43.57 40.99 38.49 39.54 36.31 30.27 33.75 32.58 30.63 35.14 37.94 41.97 46.27 47.05 48.22 49.30 50.24 52.21 54.80 55.44 57.79 60.23 59.43 59.48 59.41 57.19 57.27 57.50 59.21 58.90 55.14 53.64 52.80 52.72 52.36 52.35 52.04 52.23
38.22 39.28 42.06 43.33 38.38 41.61 40.20 32.91 23.28 25.19 25.22 27.04 36.15 31.65 33.63 38.80 43.22 44.85 45.55 46.80 48.04 49.12 49.30 51.34 54.68 56.50 57.45 58.20 59.30 59.09 57.77 57.63 56.26 57.32 58.40 57.53 56.16 54.72 53.70 53.53 52.10 51.17 51.44 52.23
31.89 30.97 39.16 40.58 38.73 35.65 36.31 34.63 23.67 15.99 19.71 23.69 36.07 27.70 34.39 42.84 45.49 45.95 47.27 47.75 48.37 48.57 49.77 50.07 53.68 56.34 58.00 58.35 58.86 58.27 57.48 56.72 57.36 56.92 56.22 56.63 56.39 56.07 56.16 55.34 52.85 51.98 51.84 51.87
32.42 33.68 39.82 39.96 41.01 40.34 35.69 32.15 37.70 29.48 30.34 26.61 30.49 34.77 40.04 43.13 43.73 43.54 45.78 47.14 47.23 48.11 49.08 49.77 51.71 54.25 55.46 57.32 57.60 56.85 56.11 56.06 56.09 55.95 55.67 54.62 54.61 54.44 54.05 54.41 54.36 52.86 52.34 52.26
36.70 30.89 38.14 40.64 41.03 41.71 37.08 40.97 32.02 30.77 20.41 21.40 27.19 27.65 29.53 36.62 39.73 42.65 44.59 45.88 46.75 47.68 48.02 48.56 50.25 51.79 52.61 54.16 54.91 54.77 54.45 53.64 54.49 55.16 55.18 54.84 54.25 54.46 54.82 54.44 53.94 54.12 52.61 52.23
36.39 33.33 33.98 37.31 35.92 36.60 36.51 34.77 34.47 33.21 31.23 25.01 23.98 27.72 34.68 38.49 41.58 41.43 43.35 45.49 46.48 46.98 46.80 46.80 48.55 50.50 51.12 51.02 51.05 51.70 51.87 51.52 51.62 52.63 52.79 52.77 52.81 53.30 53.33 53.27 52.88 52.64 53.39 53.08
37.26 33.12 30.35 34.21 38.05 39.62 37.11 34.73 33.06 27.14 27.66 28.37 26.80 28.94 41.52 40.94 42.18 43.15 41.95 45.21 46.73 46.77 46.15 46.20 47.71 47.64 47.64 47.97 47.53 48.22 49.52 49.71 49.71 50.48 49.37 49.61 50.63 51.27 51.21 50.98 51.02 51.00 49.98 50.01
38.10 32.27 27.71 30.53 34.35 36.67 34.06 36.41 34.68 32.40 30.18 27.64 24.83 27.54 40.42 40.49 41.33 42.76 41.48 42.47 46.01 46.29 44.89 44.63 46.51 45.76 45.28 46.05 45.93 44.85 44.77 45.20 45.53 43.83 45.23 45.36 45.90 47.66 48.94 49.32 49.74 50.33 50.03 49.92
42.85 33.62 31.43 29.08 31.68 34.69 31.68 35.28 34.54 31.90 25.83 27.00 28.56 29.16 37.55 39.82 40.90 41.32 41.62 42.33 44.26 45.79 45.24 45.43 45.40 46.75 46.27 45.27 43.99 43.92 43.46 43.62 43.58 43.41 42.93 40.71 40.64 40.83 41.09 41.47 42.37 42.25 41.79 41.53
37.29 31.57 33.03 34.96 36.70 36.53 35.69 35.30 34.26 31.51 30.92 28.79 30.91 32.66 36.21 40.61 41.27 41.74 42.12 42.42 41.58 43.73 43.65 42.65 44.28 43.25 42.62 41.99 41.44 39.94 39.64 39.22 39.66 39.80 39.27 38.56 39.20 39.86 39.50 38.89 38.92 39.14 39.61 38.68
35.87 31.51 32.35 31.68 35.63 34.91 33.44 35.10 34.98 34.19 33.52 32.17 31.98 32.32 37.31 40.90 42.13 41.18 41.27 42.34 42.18 40.89 42.50 41.44 41.34 40.26 38.90 37.55 37.44 38.08 38.12 38.47 38.62 38.84 38.13 38.82 38.90 38.75 37.68 37.54 37.21 37.17 36.32 37.01
33.81 32.02 30.48 28.08 33.44 33.86 31.05 34.36 35.05 34.83 35.12 35.68 30.92 34.90 39.87 40.59 42.85 42.42 41.83 42.52 42.45 41.44 41.02 40.24 39.58 39.15 38.38 37.95 38.17 37.55 37.71 38.01 37.61 37.59 37.80 37.89 37.94 37.36 36.79 36.67 36.34 35.47 34.88 35.51
32.20 31.79 31.50 27.54 31.38 25.45 34.90 38.08 38.47 37.34 37.88 36.85 36.35 38.10 42.07 43.54 45.00 44.43 44.71 43.48 42.34 42.14 41.23 40.36 39.92 39.11 38.56 38.52 38.52 37.92 37.81 37.44 37.47 37.18 37.20 37.29 37.12 36.52 36.34 35.91 34.98 34.16 34.04 33.86
35.55 33.26 28.52 27.22 27.88 32.93 35.60 37.97 37.28 36.58 36.68 39.74 38.78 40.10 41.95 42.57 41.55 41.50 45.42 46.21 44.65 43.42 42.76 41.74 41.40 40.52 38.47 38.92 38.73 38.47 37.38 37.16 36.82 36.03 35.62 35.96 36.50 35.73 35.56 34.71 33.79 33.04 32.90 32.36
35.17 34.88 32.33 27.75 25.71 26.17 35.26 39.07 41.32 39.43 31.42 39.56 41.50 40.40 40.03 40.03 35.30 40.09 44.60 46.49 45.15 44.72 43.83 41.66 40.92 39.64 39.64 39.11 39.02 38.50 37.10 36.49 35.91 35.87 36.01 36.48 36.61 35.89 34.75 33.83 33.09 32.15 31.50 31.73
29.02 28.51 27.55 27.03 25.33 31.65 38.47 40.45 40.45 30.76 34.23 39.68 41.66 41.79 40.63 40.18 42.74 41.55 45.49 45.56 46.12 45.05 43.34 42.66 41.24 40.73 40.57 39.14 39.25 38.12 36.85 36.70 36.77 36.59 36.84 36.91 36.32 35.57 34.53 32.55 31.18 30.53 30.18 30.28
29.96 26.65 25.75 26.50 25.24 27.58 40.51 38.34 35.99 38.60 38.55 40.91 40.53 40.95 42.54 43.81 42.32 42.61 44.96 45.18 44.45 43.65 42.71 42.23 41.01 40.22 38.60 39.38 39.67 37.54 36.84 36.74 37.18 37.41 37.03 35.78 34.67 36.63 34.38 30.92 29.42 29.69 29.21 28.30
31.04 32.85 30.15 32.21 32.95 39.15 41.51 38.84 40.90 41.55 41.01 40.44 40.93 41.26 44.40 42.41 42.37 43.20 42.42 43.94 44.62 43.80 43.23 42.68 41.33 39.70 38.41 39.16 40.19 37.42 37.04 37.29 37.09 36.50 34.95 34.03 33.90 33.02 31.32 29.51 28.71 29.12 28.82 28.47
33.75 36.70 33.25 34.10 38.37 38.76 40.61 39.68 40.78 42.27 41.98 42.20 42.56 42.72 43.33 42.38 42.70 42.68 41.81 43.00 44.16 43.71 42.85 42.56 40.81 39.85 38.17 39.02 39.08 39.66 37.37 37.94 37.00 34.89 33.09 31.83 30.62 29.66 29.26 30.59 30.39 29.24 28.40 27.87
35.92 37.82 35.26 33.91 37.10 38.85 41.09 41.40 41.53 42.64 42.74 42.61 42.91 43.89 44.66 43.45 42.38 42.91 42.00 42.34 43.94 43.63 43.16 42.45 41.50 40.61 40.16 39.52 38.75 38.58 38.68 37.90 36.11 34.90 33.28 31.39 31.09 29.07 28.66 29.62 29.42 29.49 28.04 29.53
35.73 35.21 36.66 35.02 41.60 40.64 41.04 42.08 42.74 42.68 43.51 43.36 43.34 42.80 43.62 44.52 43.67 42.88 42.76 43.71 43.42 42.63 42.32 41.79 41.61 40.90 40.54 39.67 39.17 38.68 38.97 38.36 36.51 34.41 32.94 31.82 30.28 28.56 29.15 29.08 29.14 36.52 36.14 37.29
MSLP
1013.06 1013.81 1014.05 1014.09 1014.08 1014.06 1014.42 1014.62 1014.49 1013.71 1013.17 1013.36 1013.62 1014.24 1014.59 1014.59 1014.43 1014.47 1014.47 1014.18 1013.85 1013.07 1012.51 1012.71 1011.83 1011.13 1009.78 1009.13 1009.72 1009.92 1010.19 1011.10 1011.50 1012.20 1013.01 1013.65 1013.73 1013.99 1014.31 1014.28 1014.53 1015.99 1016.03 1016.50
1013.57 1013.57 1013.21 1013.35 1013.51 1013.72 1014.12 1014.34 1014.26 1013.77 1013.30 1013.58 1013.94 1014.65 1014.80 1014.84 1014.83 1014.79 1014.93 1014.67 1014.29 1013.79 1012.73 1012.08 1011.80 1011.46 1010.74 1010.20 1010.56 1010.59 1010.74 1011.16 1011.94 1012.33 1013.25 1013.59 1014.01 1014.61 1014.69 1014.84 1015.23 1015.63 1016.30 1016.66
1013.04 1012.76 1012.62 1012.91 1013.27 1013.52 1013.87 1014.11 1014.17 1014.20 1013.76 1013.57 1014.29 1015.08 1015.16 1014.98 1015.06 1014.94 1015.07 1015.02 1014.56 1014.21 1013.48 1012.29 1011.55 1011.95 1011.15 1010.52 1010.64 1011.06 1011.51 1011.68 1011.95 1012.50 1013.01 1013.28 1013.96 1014.94 1015.53 1015.58 1016.03 1016.51 1016.96 1016.85
1012.63 1012.34 1012.47 1012.72 1013.02 1013.47 1013.71 1013.48 1013.81 1014.14 1014.63 1014.95 1014.90 1015.78 1015.60 1015.55 1015.51 1015.46 1015.52 1015.09 1014.77 1014.13 1013.51 1012.71 1011.76 1011.50 1011.06 1011.02 1010.84 1010.76 1011.45 1011.68 1012.25 1012.48 1012.48 1012.79 1013.25 1015.00 1016.43 1017.07 1017.18 1017.16 1017.40 1017.71
1012.49 1012.37 1012.42 1012.56 1012.74 1013.24 1013.48 1013.48 1014.01 1014.33 1015.18 1015.80 1015.87 1016.48 1015.92 1016.21 1016.07 1015.94 1015.76 1015.31 1014.81 1014.05 1013.45 1012.59 1011.80 1011.27 1010.73 1010.72 1011.08 1011.25 1011.70 1012.42 1012.65 1012.42 1012.68 1013.08 1013.90 1014.50 1016.62 1017.27 1018.08 1018.33 1018.57 1018.73
1012.50 1012.31 1012.39 1012.35 1012.48 1012.93 1013.30 1013.96 1014.80 1015.35 1016.34 1016.94 1016.70 1016.95 1016.55 1016.84 1017.02 1016.60 1016.15 1015.69 1015.15 1014.49 1013.71 1012.50 1011.32 1010.90 1010.77 1010.76 1011.28 1011.79 1012.34 1012.82 1012.37 1012.42 1012.83 1013.32 1013.55 1014.98 1016.30 1017.54 1017.76 1018.93 1018.77 1019.17
1012.77 1012.56 1012.27 1012.33 1012.65 1012.95 1013.79 1015.23 1016.43 1017.45 1017.93 1017.84 1017.20 1017.35 1016.68 1016.83 1017.18 1017.34 1016.77 1016.29 1015.67 1015.14 1014.26 1013.20 1012.12 1011.68 1011.56 1011.48 1011.74 1012.39 1012.80 1013.26 1013.42 1013.18 1013.39 1013.91 1014.59 1015.18 1015.47 1016.64 1017.56 1018.74 1019.54 1020.15
1013.23 1012.98 1012.48 1012.33 1012.73 1013.27 1014.22 1015.53 1017.16 1018.46 1019.31 1018.98 1017.52 1017.36 1016.60 1016.78 1017.22 1017.47 1017.21 1016.80 1016.29 1015.52 1014.91 1014.37 1013.66 1012.91 1012.54 1012.42 1012.70 1013.12 1013.42 1013.97 1014.21 1014.28 1014.77 1015.19 1015.99 1016.34 1016.78 1017.07 1017.50 1017.88 1019.25 1020.17
1013.22 1012.93 1012.45 1012.47 1012.69 1013.38 1014.31 1015.51 1016.56 1018.24 1019.26 1019.35 1018.08 1017.16 1016.70 1016.80 1017.48 1017.66 1017.39 1017.16 1016.90 1016.57 1016.06 1015.42 1014.85 1014.20 1013.84 1013.70 1013.90 1014.17 1014.46 1014.79 1014.95 1015.31 1015.74 1016.15 1016.28 1017.01 1017.24 1017.92 1017.72 1018.39 1019.44 1020.17
1012.90 1013.21 1012.75 1012.67 1012.94 1013.33 1013.92 1015.14 1016.53 1017.85 1019.04 1019.21 1018.17 1017.34 1016.75 1016.73 1017.38 1017.84 1017.71 1017.52 1017.36 1017.20 1017.05 1016.62 1016.06 1015.59 1015.27 1015.10 1015.19 1015.32 1015.62 1015.77 1015.81 1016.04 1016.31 1016.33 1016.75 1017.42 1017.55 1018.14 1017.92 1018.63 1019.70 1019.86
1012.90 1013.43 1013.52 1013.16 1013.23 1013.36 1014.16 1014.85 1016.03 1017.17 1018.03 1018.68 1018.30 1016.98 1015.93 1016.41 1017.07 1017.81 1018.03 1017.81 1017.64 1017.44 1017.46 1017.29 1016.95 1016.66 1016.36 1016.27 1016.31 1016.44 1016.55 1016.61 1016.70 1016.81 1017.02 1017.19 1017.54 1017.67 1017.95 1018.43 1018.43 1019.63 1020.04 1020.11
1013.07 1013.86 1013.98 1013.49 1013.11 1013.05 1013.52 1014.12 1015.33 1016.94 1017.74 1017.97 1017.92 1016.55 1015.69 1016.23 1016.90 1017.60 1017.92 1017.95 1017.92 1017.89 1017.85 1017.73 1017.60 1017.52 1017.41 1017.36 1017.41 1017.42 1017.47 1017.55 1017.88 1018.04 1018.13 1018.22 1018.68 1018.73 1018.94 1019.37 1019.81 1020.15 1020.55 1020.49
1013.06 1014.02 1014.38 1014.07 1013.86 1013.34 1013.52 1013.85 1014.55 1015.80 1016.81 1017.23 1017.50 1016.27 1015.99 1016.52 1017.08 1017.62 1017.85 1018.05 1018.05 1018.06 1018.11 1018.03 1018.00 1017.99 1018.06 1018.10 1018.14 1018.17 1018.44 1018.56 1018.54 1018.64 1018.83 1019.02 1019.45 1019.53 1019.90 1020.56 1020.52 1020.96 1021.13 1020.79
1012.96 1014.00 1014.02 1013.67 1013.05 1012.78 1013.34 1013.50 1014.09 1015.03 1016.42 1016.39 1016.05 1015.64 1015.93 1016.47 1016.95 1017.57 1017.78 1017.85 1018.05 1018.15 1018.27 1018.37 1018.43 1018.51 1018.55 1018.66 1018.86 1018.80 1019.04 1019.03 1019.21 1019.43 1019.72 1020.03 1020.26 1020.27 1020.56 1021.10 1021.33 1021.27 1021.75 1022.15
1013.47 1014.21 1014.12 1013.61 1013.14 1012.98 1012.84 1013.12 1013.56 1014.29 1014.64 1015.28 1014.75 1014.84 1014.55 1015.17 1015.96 1016.77 1017.35 1017.63 1017.90 1018.11 1018.30 1018.39 1018.38 1018.65 1018.93 1019.05 1019.23 1019.37 1019.55 1019.86 1019.98 1020.32 1020.51 1020.69 1020.82 1021.00 1021.41 1021.62 1022.35 1022.45 1022.65 1022.99
1013.99 1014.25 1014.22 1013.65 1012.89 1012.68 1012.56 1012.36 1012.64 1013.05 1013.51 1013.76 1013.75 1013.83 1013.31 1013.74 1015.22 1016.37 1016.96 1017.26 1017.60 1017.80 1017.97 1018.33 1018.50 1018.84 1019.32 1019.63 1019.74 1019.87 1020.12 1020.39 1020.58 1020.59 1020.92 1021.16 1021.44 1021.72 1022.35 1022.62 1022.82 1023.14 1023.73 1024.26
1014.18 1014.46 1014.77 1014.16 1013.18 1012.55 1012.18 1010.89 1011.13 1011.55 1011.73 1012.10 1012.82 1012.12 1012.74 1013.69 1014.28 1015.12 1015.97 1016.35 1016.77 1017.21 1017.68 1018.08 1018.45 1018.84 1019.34 1019.72 1019.86 1020.19 1020.46 1020.70 1021.00 1021.20 1021.67 1022.14 1022.41 1022.78 1023.12 1023.30 1023.80 1024.23 1024.53 1024.53
1013.74 1014.55 1014.76 1014.56 1013.66 1012.50 1010.14 1009.55 1009.60 1010.02 1010.29 1010.75 1010.99 1011.35 1011.60 1012.07 1012.64 1013.79 1014.71 1015.20 1015.92 1016.56 1017.21 1017.77 1018.21 1018.75 1019.16 1019.51 1020.06 1020.49 1020.85 1021.14 1021.45 1021.81 1022.36 1022.70 1022.97 1022.91 1023.12 1024.36 1024.75 1024.81 1024.88 1025.06
1013.07 1013.96 1014.89 1014.79 1014.03 1011.79 1009.66 1009.20 1009.18 1009.51 1009.24 1009.13 1009.96 1010.68 1011.24 1012.08 1012.99 1013.58 1013.72 1014.08 1014.49 1015.31 1016.23 1016.98 1017.58 1018.28 1018.92 1019.38 1019.84 1020.36 1020.97 1021.40 1021.73 1022.06 1022.30 1022.55 1022.88 1023.55 1024.24 1024.77 1024.96 1024.91 1024.87 1025.21
1013.58 1013.71 1014.39 1015.06 1014.13 1011.94 1009.17 1008.41 1008.35 1008.71 1008.76 1007.91 1008.69 1010.01 1010.96 1011.94 1013.01 1011.98 1012.41 1013.23 1014.09 1014.68 1015.56 1016.50 1017.36 1018.06 1018.73 1019.27 1019.80 1020.47 1021.01 1021.42 1021.91 1022.25 1022.64 1022.97 1023.38 1023.97 1024.48 1024.65 1024.95 1025.06 1025.30 1025.57
1014.14 1014.55 1014.72 1014.62 1013.59 1011.00 1008.51 1008.29 1008.27 1008.73 1007.98 1007.44 1008.13 1009.11 1010.36 1010.85 1010.19 1010.63 1011.08 1012.40 1013.12 1013.99 1014.95 1015.93 1016.93 1017.55 1018.14 1018.94 1019.65 1020.39 1021.00 1021.38 1021.61 1022.14 1022.66 1023.18 1023.60 1024.03 1024.46 1024.84 1025.03 1025.37 1025.77 1026.14
1012.14 1013.52 1014.16 1013.94 1013.15 1010.43 1007.58 1008.37 1007.86 1006.69 1006.70 1006.88 1007.66 1008.27 1009.22 1009.27 1010.02 1010.46 1010.98 1011.86 1012.82 1013.72 1014.67 1015.43 1016.37 1017.16 1017.84 1018.55 1019.26 1020.03 1020.63 1021.01 1021.54 1022.07 1022.66 1023.21 1023.62 1023.97 1024.40 1024.78 1025.29 1025.59 1025.98 1026.57
1010.44 1009.53 1010.46 1010.23 1008.90 1007.00 1006.46 1005.94 1005.82 1005.80 1006.22 1006.70 1007.10 1007.73 1008.22 1009.10 1009.67 1010.12 1010.83 1011.48 1012.12 1012.91 1013.89 1014.73 1015.58 1016.55 1017.42 1018.04 1018.60 1019.47 1020.10 1020.78 1021.50 1022.14 1022.82 1023.37 1023.82 1024.21 1024.70 1025.22 1025.76 1026.21 1026.47 1026.91
1008.59 1008.22 1008.37 1008.60 1006.59 1006.28 1005.83 1005.77 1005.72 1005.71 1005.70 1006.04 1006.39 1007.10 1008.01 1008.67 1009.27 1009.87 1010.48 1011.24 1011.87 1012.54 1013.25 1014.11 1015.19 1016.08 1016.87 1017.47 1018.11 1018.71 1019.66 1020.43 1021.25 1022.08 1022.83 1023.40 1023.99 1024.59 1024.91 1025.21 1025.60 1026.07 1026.56 1026.93
1005.92 1006.62 1006.95 1006.66 1005.74 1005.61 1005.37 1005.24 1005.20 1005.42 1005.63 1005.95 1006.28 1006.70 1007.18 1007.99 1008.94 1009.40 1010.09 1010.74 1011.31 1011.94 1012.79 1013.44 1014.23 1015.11 1015.88 1016.65 1017.48 1018.27 1019.12 1019.96 1020.94 1021.79 1022.66 1023.40 1023.91 1024.52 1025.05 1025.25 1025.46 1025.80 1026.20 1026.27
1004.14 1004.33 1004.84 1004.61 1003.52 1003.61 1003.65 1003.75 1004.51 1005.27 1005.51 1005.63 1006.05 1006.78 1007.25 1007.57 1008.18 1009.00 1009.62 1010.01 1010.66 1011.44 1012.18 1012.94 1013.53 1014.33 1015.06 1016.05 1016.94 1017.69 1018.47 1019.31 1020.38 1021.51 1022.32 1022.94 1023.62 1024.39 1024.86 1025.31 1025.55 1025.39 1025.49 1025.73
Wind_Speed
1 3 3 6 7 4 2 3 4 4 3 2 2 3 2 4 6 9 9 9 11 13 9 8 10 10 14 8 6 9 13 7 8 5 9 3 6 5 1 4 12 6 8 9
4 5 8 7 0 1 1 2 4 6 5 4 4 2 3 4 1 3 8 11 11 13 15 13 13 8 10 10 3 9 10 11 6 4 2 3 3 2 1 3 6 7 3 7
6 4 5 1 1 3 2 4 3 5 6 3 5 2 4 5 3 5 7 9 12 10 12 13 15 7 8 9 3 8 9 8 8 10 7 5 6 5 2 4 5 3 4 3
4 1 3 2 2 3 3 7 5 3 3 2 3 5 3 5 9 4 7 12 11 13 11 9 12 9 8 3 3 9 10 10 6 6 5 5 8 5 4 5 3 5 8 3
5 4 2 2 4 3 8 3 6 3 3 2 4 4 6 5 7 10 15 14 14 14 13 13 11 8 8 3 5 4 11 7 6 6 6 8 10 10 6 8 7 8 7 6
6 0 4 4 2 4 5 2 7 5 3 2 4 4 5 4 4 7 12 13 14 14 15 14 8 4 3 8 8 9 13 7 7 8 7 12 16 15 11 8 9 4 7 6
2 3 2 2 2 3 8 6 3 5 5 5 1 3 7 2 4 5 11 11 13 12 14 15 15 9 8 9 9 8 9 8 6 10 10 8 11 14 18 14 8 9 5 2
4 4 5 2 3 3 1 5 6 6 2 5 4 2 6 4 6 3 6 8 10 13 12 15 12 10 10 10 11 10 9 9 8 9 9 8 8 5 6 7 8 8 6 5
5 3 1 2 2 5 1 2 3 6 3 3 3 2 3 4 3 3 7 7 9 10 12 14 13 13 12 11 10 11 10 10 9 9 7 7 7 7 7 7 7 7 7 6
6 1 4 3 2 1 2 5 2 3 2 2 4 3 5 4 4 3 5 6 6 8 9 10 10 10 10 11 11 12 11 11 10 10 8 9 9 8 9 6 8 6 7 8
4 3 2 4 4 7 1 1 1 3 4 4 1 6 6 6 5 7 1 1 3 6 7 7 8 8 9 10 10 10 10 12 10 10 9 9 8 8 9 7 8 6 6 7
4 5 3 5 2 2 4 5 5 5 4 1 3 7 3 7 8 7 5 2 3 6 6 6 7 8 8 9 9 9 9 10 8 7 8 9 8 8 8 8 7 7 8 7
7 2 1 5 4 3 4 4 5 5 3 5 6 6 3 4 7 6 7 5 3 6 6 5 6 7 7 7 7 8 7 7 8 8 9 9 9 9 9 7 8 8 7 9
6 3 6 7 4 5 4 5 5 6 4 3 6 3 6 7 7 7 7 7 6 6 7 6 6 5 5 6 6 6 7 7 7 8 9 8 7 8 8 7 8 8 7 8
6 5 5 6 8 3 6 6 8 8 6 7 5 8 8 14 13 10 9 8 8 9 8 6 7 5 6 5 5 6 6 6 6 8 8 7 8 9 9 9 8 8 10 8
2 2 3 4 4 9 7 9 10 9 6 7 5 9 8 8 8 8 10 11 10 8 9 7 5 6 7 6 6 6 6 6 6 8 8 7 9 9 8 8 8 9 8 7
8 6 4 5 3 3 7 10 10 6 6 10 10 10 6 4 12 14 13 12 13 12 11 10 9 7 6 7 7 7 7 6 7 7 7 6 7 7 7 7 8 7 7 7
8 7 3 3 2 3 6 1 6 11 6 8 4 6 11 12 14 10 11 14 12 13 13 11 10 8 7 6 6 7 6 7 7 7 7 7 6 7 8 7 6 6 4 6
4 6 4 5 4 6 4 6 7 8 8 12 11 7 8 6 5 5 11 14 17 16 14 13 12 11 7 9 7 7 6 6 6 6 6 6 7 7 7 7 6 4 6 4
5 5 5 3 4 8 6 3 5 5 7 8 14 10 10 8 5 10 14 13 11 14 14 13 12 8 11 10 10 11 9 7 7 7 7 7 7 7 7 7 6 3 3 4
5 3 7 3 4 9 8 6 4 5 10 6 11 11 11 11 11 3 12 10 14 15 15 13 13 14 14 11 12 12 10 11 8 7 7 7 6 7 7 6 3 5 5 6
11 10 6 4 2 11 9 5 9 9 2 7 8 10 15 12 8 6 10 12 12 13 13 15 14 12 9 12 13 11 12 8 8 9 8 7 7 5 5 7 4 5 6 6
5 10 11 12 12 5 12 3 6 6 7 6 8 7 14 10 8 8 8 11 14 15 15 14 14 12 10 12 13 13 10 11 10 10 9 7 6 6 6 6 6 4 5 5
5 5 5 5 9 9 11 5 5 7 7 6 6 8 10 9 9 8 7 9 12 13 14 14 13 13 13 12 11 12 12 11 12 11 9 7 7 6 5 4 4 5 4 4
7 14 8 5 5 3 7 13 6 7 5 6 5 8 13 10 9 8 8 10 12 13 12 14 15 14 15 13 11 11 14 14 12 11 9 7 6 7 6 4 5 5 3 5
7 9 9 7 11 7 7 10 10 10 9 10 9 5 6 10 11 9 8 10 11 12 11 13 13 13 13 13 12 13 14 15 14 11 8 8 6 5 5 5 3 7 9 11
Wind_Direction
252 82 231 224 205 205 209 240 262 265 264 333 172 150 307 320 28 8 340 333 330 322 333 332 330 330 337 1 120 132 130 131 141 159 158 170 170 149 156 124 128 137 143 145
19 225 223 215 217 174 158 240 295 290 265 195 154 154 262 297 311 16 349 327 316 324 331 333 329 353 341 352 107 131 132 133 108 103 111 118 99 86 132 111 100 114 78 163
165 238 185 170 67 33 270 195 229 231 321 27 103 302 268 278 290 344 358 324 328 326 328 323 321 359 329 346 34 125 140 126 132 137 131 101 71 62 0 97 87 100 180 121
218 224 168 212 224 143 281 210 239 270 41 247 65 283 302 321 322 346 327 345 336 335 327 308 312 326 308 357 54 116 124 116 126 140 119 128 123 95 354 20 45 64 46 36
251 174 170 200 211 168 238 227 263 218 182 53 331 65 264 344 333 342 348 342 333 330 332 324 303 296 288 305 138 112 104 96 88 89 138 133 113 117 135 108 64 58 57 21
221 119 157 211 266 196 296 19 25 54 81 38 284 125 290 340 321 342 342 338 333 338 342 345 306 264 45 88 99 103 111 88 65 73 91 127 129 136 127 121 112 87 54 24
36 216 220 160 337 345 43 48 344 10 14 219 322 55 248 335 58 340 333 337 336 352 356 1 17 62 75 99 97 91 102 96 65 78 84 102 129 140 142 144 141 134 123 112
152 308 174 192 192 199 339 135 152 186 175 264 327 299 275 108 106 323 331 346 356 1 4 11 12 47 51 67 69 81 81 82 79 61 71 73 73 87 117 119 132 128 140 142
155 255 142 167 162 126 174 55 162 103 25 53 247 258 302 110 145 350 5 9 16 13 8 7 12 33 40 57 65 77 78 79 87 92 87 89 89 99 100 92 102 124 130 145
197 137 211 142 101 128 155 163 55 10 94 280 293 259 237 278 100 43 9 5 19 35 19 9 18 37 49 55 68 71 73 74 72 80 83 86 84 88 94 105 100 99 135 138
134 101 257 115 198 182 138 257 128 129 140 164 273 265 209 199 140 148 193 27 23 56 42 23 27 33 47 59 65 69 68 71 63 65 66 74 75 71 69 63 82 86 88 111
167 139 201 212 266 211 189 189 139 122 237 171 148 275 151 171 137 153 170 178 95 77 63 43 45 58 65 63 59 68 80 82 80 79 85 83 86 84 82 82 80 92 102 96
174 180 88 345 352 343 208 209 144 120 81 205 142 259 147 167 135 173 157 167 147 122 105 65 63 67 69 70 84 81 77 88 85 89 93 91 89 89 88 86 97 99 96 103
103 151 179 191 204 148 187 191 176 139 133 203 226 214 213 199 188 173 178 163 166 153 133 123 101 102 87 76 80 84 85 87 93 92 91 85 86 86 85 79 68 74 83 79
125 200 185 239 246 237 214 205 191 191 188 168 254 202 211 204 194 183 180 161 160 165 158 157 152 150 131 126 108 97 88 79 83 93 94 90 87 82 84 79 82 75 78 82
166 222 191 284 261 216 241 230 218 209 205 253 226 256 214 199 128 157 180 172 175 180 163 161 157 140 141 144 134 117 112 105 110 102 91 87 87 88 88 89 84 83 81 86
151 145 125 256 351 355 292 221 198 189 190 189 209 223 155 154 176 184 184 182 179 176 170 169 170 169 169 160 152 143 133 117 102 102 101 102 99 99 104 94 89 93 99 95
146 137 132 212 13 247 241 227 190 199 196 207 204 193 180 182 192 177 185 179 177 173 173 174 170 168 174 161 146 135 135 131 128 125 130 131 122 101 88 98 104 99 101 108
148 134 134 153 202 293 272 207 170 171 262 196 193 194 189 122 87 242 195 186 181 179 177 176 173 167 166 163 158 144 139 136 133 143 138 129 119 117 121 119 126 114 103 89
75 77 115 141 172 213 235 191 142 106 290 199 176 173 154 132 166 234 187 185 180 172 169 168 170 163 165 172 160 156 162 156 164 165 158 145 137 135 129 131 125 98 110 117
132 77 170 156 225 282 229 171 146 103 237 162 173 168 155 185 197 199 167 173 175 172 168 163 166 175 179 166 161 165 165 175 171 149 139 137 138 136 137 129 110 120 109 109
160 145 175 120 174 268 158 83 164 209 197 163 169 170 184 200 153 152 169 168 163 165 160 165 169 176 171 167 166 167 176 166 147 141 138 138 138 134 132 122 105 108 115 113
185 181 175 177 204 224 199 183 205 172 157 185 163 190 185 172 186 172 175 172 175 171 170 171 173 172 172 173 174 170 174 153 148 144 146 146 143 137 140 134 138 125 131 132
248 156 167 108 224 219 209 241 219 184 185 179 179 171 164 176 177 189 164 170 172 172 174 171 168 175 180 181 174 172 158 156 152 151 151 148 142 146 146 137 143 138 146 144
186 152 160 257 277 135 252 217 206 203 190 168 170 179 188 170 181 180 177 174 177 176 172 175 180 182 187 179 172 159 160 157 157 155 156 157 156 149 147 144 158 152 176 165
184 162 165 200 211 168 218 194 186 186 194 197 173 178 201 184 185 174 191 186 175 176 171 180 185 184 184 174 168 165 165 163 157 159 164 169 155 154 149 143 130 159 154 150